This demonstration page uses our WeatherBlox Daily Observations layout. Learn more.

Left ArrowRight Arrow

39.08367, -84.50855

Hourly Observations for November 9, 2018

Temp ( °F °C ) Dew Point ( °F °C ) Humidity (%) Winds ( mph kmh ) Pressure ( in mb ) Visibility ( mi km ) Precip ( " mm )
12:53 am 00:53 Cloudy with Light Rain 43 6.1 34 1.1 71 71 N 7 11 30.16 1021 10 16 0.00 0.03
1:53 am 01:53 Cloudy with Light Rain 41 5 37 2.8 86 86 NE 7 11 30.12 1020 10 16 0.01 0.25
2:53 am 02:53 Cloudy with Heavy Rain 40 4.4 37 2.8 89 89 N 9 15 30.13 1020 3 5 0.08 2.03
3:33 am 03:33 Cloudy with Light Rain 40 4.4 38 3.3 93 93 N 7 11 30.12 1020 7 11 0.03 0.76
3:53 am 03:53 Cloudy with Light Rain 39 3.9 38 3.3 96 96 NE 9 15 30.10 1019 3 5 0.05 1.27
4:53 am 04:53 Cloudy with Mist and Fog 39 3.9 38 3.3 96 96 NNE 7 11 30.07 1018 6 10 0.02 0.51
5:53 am 05:53 Cloudy 39 3.9 37 2.8 93 93 NNE 6 9 30.05 1018 9 14 0.00 0.03
6:53 am 06:53 Cloudy with Light Rain 39 3.9 37 2.8 93 93 N 6 9 30.04 1017 5 8 0.01 0.25
7:53 am 07:53 Cloudy with Light Rain 39 3.9 38 3.3 96 96 Calm 30.06 1018 6 10 0.02 0.51
8:53 am 08:53 Cloudy 39 3.9 38 3.3 96 96 Calm 30.04 1017 7 11 0.01 0.25
9:53 am 09:53 Cloudy 40 4.4 37 2.8 89 89 Calm 30.05 1018 9 14 0.00 0.00
10:53 am 10:53 Cloudy with Mist and Fog 41 5 38 3.3 89 89 NW 3 6 30.04 1017 6 10 0.00 0.00
11:53 am 11:53 Cloudy with Mist and Fog 42 5.6 39 3.9 89 89 WSW 7 11 30.05 1018 7 11 0.00 0.00
12:21 pm 12:21 Cloudy with Mist and Fog 43 6.1 40 4.4 89 89 W 8 13 30.03 1017 9 14 0.00 0.00
12:53 pm 12:53 Cloudy 43 6.1 40 4.4 89 89 W 7 11 30.05 1018 9 14 0.00 0.00
1:44 pm 13:44 Cloudy 45 7.2 40 4.4 83 83 W 8 13 30.03 1017 10 16 0.00 0.00
1:53 pm 13:53 Cloudy 45 7.2 39 3.9 80 80 W 10 17 30.04 1017 10 16 0.00 0.00
2:53 pm 14:53 Cloudy 46 7.8 37 2.8 71 71 W 17 28 30.04 1017 10 16 0.00 0.00
3:00 pm 15:00 Cloudy 45 7.2 37 2.8 74 74 W 15 24 30.03 1017 10 16 0.00 0.00
3:53 pm 15:53 Cloudy 44 6.7 37 2.8 76 76 WSW 10 17 30.06 1018 10 16 0.00 0.00
4:53 pm 16:53 Cloudy 43 6.1 35 1.7 74 74 W 16 26 30.08 1019 10 16 0.00 0.00
5:53 pm 17:53 Cloudy 42 5.6 34 1.1 73 73 WNW 8 13 30.11 1020 10 16 0.00 0.00
6:53 pm 18:53 Cloudy 39 3.9 33 0.6 79 79 W 20 31 30.14 1021 10 16 0.00 0.03
7:53 pm 19:53 Cloudy 38 3.3 28 -2.2 68 68 W 16 26 30.17 1022 10 16 0.00 0.00
8:53 pm 20:53 Cloudy 37 2.8 27 -2.8 67 67 NW 13 20 30.19 1022 10 16 0.00 0.00
9:53 pm 21:53 Cloudy 36 2.2 24 -4.4 62 62 W 17 28 30.21 1023 10 16 0.00 0.00
10:53 pm 22:53 Cloudy 35 1.7 24 -4.4 64 64 W 12 19 30.21 1023 9 14 0.00 0.03
11:53 pm 23:53 Mostly Clear 33 0.6 25 -3.9 72 72 W 12 19 30.22 1023 10 16 0.00 0.00

Powered by AerisWeather